Stündliche Wetter Barr

Heute, 25 Oktober, Sonntag

Zeit Temperatur Niederschläge Wind Luftdruck Luftfeuchtigkeit
00:00 +9°C° 0 mm 2 m/S 732 mmHg 82%
01:00 +9°C° 0 mm 2 m/S 732 mmHg 82%
02:00 +9°C° 0 mm 2 m/S 732 mmHg 82%
03:00 +9°C° 0 mm 2 m/S 731 mmHg 82%
04:00 +9°C° 0 mm 2 m/S 731 mmHg 81%
05:00 +9°C° 0 mm 2 m/S 731 mmHg 81%
06:00 +9°C° 0 mm 2 m/S 730 mmHg 80%
07:00 +10°C° 0 mm 3 m/S 730 mmHg 75%
08:00 +12°C° 0 mm 3 m/S 730 mmHg 70%
09:00 +13°C° 0 mm 4 m/S 730 mmHg 65%
10:00 +15°C° 0 mm 4 m/S 729 mmHg 62%
11:00 +17°C° 0 mm 4 m/S 729 mmHg 58%
12:00 +18°C° 0 mm 4 m/S 729 mmHg 54%
13:00 +18°C° 0 mm 4 m/S 728 mmHg 57%
14:00 +17°C° 0 mm 3 m/S 728 mmHg 60%
15:00 +17°C° 0 mm 2 m/S 728 mmHg 63%
16:00 +15°C° 0.1 mm 2 m/S 728 mmHg 69%
17:00 +14°C° 0.1 mm 2 m/S 728 mmHg 75%
18:00 +12°C° 0.1 mm 2 m/S 728 mmHg 81%
19:00 +12°C° 0.9 mm 2 m/S 728 mmHg 84%
20:00 +10°C° 0.9 mm 2 m/S 728 mmHg 88%
21:00 +11°C° 0.9 mm 1 m/S 728 mmHg 92%
22:00 +11°C° 1.3 mm 1 m/S 728 mmHg 93%
23:00 +11°C° 1.3 mm 1 m/S 728 mmHg 94%

Morgen, 26 Oktober, Montag

Zeit Temperatur Niederschläge Wind Luftdruck Luftfeuchtigkeit
00:00 +10°C° 1.3 mm 1 m/S 728 mmHg 94%
01:00 +10°C° 2 mm 1 m/S 728 mmHg 94%
02:00 +10°C° 2 mm 1 m/S 728 mmHg 93%
03:00 +9°C° 2 mm 1 m/S 728 mmHg 93%
04:00 +9°C° 0.3 mm 1 m/S 728 mmHg 93%
05:00 +9°C° 0.3 mm 1 m/S 728 mmHg 93%
06:00 +8°C° 0.3 mm 2 m/S 728 mmHg 93%
07:00 +8°C° 0.3 mm 2 m/S 728 mmHg 92%
08:00 +8°C° 0.3 mm 2 m/S 729 mmHg 91%
09:00 +9°C° 0.3 mm 2 m/S 729 mmHg 89%
10:00 +9°C° 0.4 mm 2 m/S 729 mmHg 88%
11:00 +9°C° 0.4 mm 2 m/S 729 mmHg 87%
12:00 +9°C° 0.4 mm 2 m/S 729 mmHg 86%
13:00 +9°C° 0.1 mm 2 m/S 729 mmHg 85%
14:00 +9°C° 0.1 mm 2 m/S 729 mmHg 85%
15:00 +10°C° 0.1 mm 2 m/S 729 mmHg 84%
16:00 +9°C° 0 mm 2 m/S 729 mmHg 86%
17:00 +8°C° 0 mm 2 m/S 729 mmHg 89%
18:00 +8°C° 0 mm 2 m/S 730 mmHg 91%
19:00 +7°C° 0 mm 2 m/S 730 mmHg 91%
20:00 +7°C° 0 mm 2 m/S 730 mmHg 90%
21:00 +7°C° 0 mm 2 m/S 730 mmHg 90%
22:00 +7°C° 0 mm 2 m/S 730 mmHg 90%
23:00 +7°C° 0 mm 2 m/S 730 mmHg 90%

übermorgen, 27 Oktober, Dienstag

Zeit Temperatur Niederschläge Wind Luftdruck Luftfeuchtigkeit
00:00 +7°C° 0 mm 2 m/S 730 mmHg 90%
01:00 +6°C° 0 mm 2 m/S 730 mmHg 90%
02:00 +6°C° 0 mm 2 m/S 730 mmHg 91%
03:00 +6°C° 0 mm 2 m/S 730 mmHg 91%
04:00 +6°C° 0 mm 2 m/S 730 mmHg 91%
05:00 +5°C° 0 mm 3 m/S 730 mmHg 91%
06:00 +5°C° 0 mm 3 m/S 730 mmHg 92%
07:00 +7°C° 0 mm 3 m/S 730 mmHg 89%
08:00 +7°C° 0 mm 3 m/S 730 mmHg 86%
09:00 +8°C° 0 mm 3 m/S 731 mmHg 83%
10:00 +8°C° 0.1 mm 4 m/S 731 mmHg 80%
11:00 +10°C° 0.1 mm 4 m/S 731 mmHg 77%
12:00 +10°C° 0.1 mm 4 m/S 731 mmHg 74%
13:00 +10°C° 0 mm 4 m/S 730 mmHg 74%
14:00 +10°C° 0 mm 3 m/S 730 mmHg 74%
15:00 +10°C° 0 mm 3 m/S 730 mmHg 73%
16:00 +9°C° 0 mm 3 m/S 730 mmHg 78%
17:00 +8°C° 0 mm 3 m/S 730 mmHg 83%
18:00 +7°C° 0 mm 2 m/S 730 mmHg 88%
19:00 +7°C° 0 mm 3 m/S 730 mmHg 87%
20:00 +7°C° 0 mm 3 m/S 730 mmHg 87%
21:00 +7°C° 0 mm 3 m/S 730 mmHg 86%
22:00 +7°C° 0.1 mm 3 m/S 730 mmHg 84%
23:00 +7°C° 0.1 mm 4 m/S 730 mmHg 82%

28 Oktober, Mittwoch

Zeit Temperatur Niederschläge Wind Luftdruck Luftfeuchtigkeit
00:00 +8°C° 0.1 mm 4 m/S 730 mmHg 80%
01:00 +8°C° 0.1 mm 4 m/S 730 mmHg 81%
02:00 +8°C° 0.1 mm 4 m/S 730 mmHg 83%
03:00 +8°C° 0.1 mm 4 m/S 730 mmHg 85%
04:00 +7°C° 0 mm 4 m/S 730 mmHg 86%
05:00 +7°C° 0 mm 4 m/S 730 mmHg 87%
06:00 +8°C° 0 mm 3 m/S 730 mmHg 88%
07:00 +8°C° 0 mm 4 m/S 731 mmHg 85%
08:00 +10°C° 0 mm 4 m/S 731 mmHg 82%
09:00 +11°C° 0 mm 4 m/S 731 mmHg 79%
10:00 +12°C° 0.1 mm 5 m/S 731 mmHg 75%
11:00 +13°C° 0.1 mm 5 m/S 731 mmHg 71%
12:00 +14°C° 0.1 mm 6 m/S 731 mmHg 67%
13:00 +13°C° 0.1 mm 5 m/S 731 mmHg 68%
14:00 +13°C° 0.1 mm 5 m/S 731 mmHg 69%
15:00 +13°C° 0.1 mm 4 m/S 731 mmHg 70%
16:00 +12°C° 0 mm 4 m/S 731 mmHg 74%
17:00 +11°C° 0 mm 4 m/S 731 mmHg 78%
18:00 +10°C° 0 mm 3 m/S 732 mmHg 81%
19:00 +10°C° 0 mm 4 m/S 732 mmHg 81%
20:00 +11°C° 0 mm 4 m/S 732 mmHg 81%
21:00 +11°C° 0 mm 4 m/S 733 mmHg 81%
22:00 +10°C° 0.2 mm 4 m/S 733 mmHg 82%
23:00 +10°C° 0.2 mm 4 m/S 733 mmHg 83%

29 Oktober, Donnerstag

Zeit Temperatur Niederschläge Wind Luftdruck Luftfeuchtigkeit
00:00 +10°C° 0.2 mm 4 m/S 733 mmHg 84%
01:00 +10°C° 0.1 mm 4 m/S 733 mmHg 84%
02:00 +9°C° 0.1 mm 5 m/S 733 mmHg 85%
03:00 +9°C° 0.1 mm 5 m/S 734 mmHg 85%
04:00 +10°C° 0 mm 4 m/S 734 mmHg 85%
05:00 +8°C° 0 mm 4 m/S 734 mmHg 86%
06:00 +9°C° 0 mm 3 m/S 735 mmHg 86%
07:00 +10°C° 0.1 mm 4 m/S 735 mmHg 83%
08:00 +10°C° 0.1 mm 5 m/S 736 mmHg 79%
09:00 +12°C° 0.1 mm 5 m/S 737 mmHg 76%
10:00 +12°C° 0 mm 5 m/S 737 mmHg 73%
11:00 +13°C° 0 mm 5 m/S 737 mmHg 69%
12:00 +13°C° 0 mm 5 m/S 737 mmHg 65%
13:00 +13°C° 0 mm 5 m/S 737 mmHg 68%
14:00 +13°C° 0 mm 4 m/S 737 mmHg 71%
15:00 +13°C° 0 mm 4 m/S 737 mmHg 73%
16:00 +12°C° 0 mm 4 m/S 737 mmHg 77%
17:00 +11°C° 0 mm 3 m/S 737 mmHg 80%
18:00 +11°C° 0 mm 3 m/S 738 mmHg 83%
19:00 +11°C° 0 mm 3 m/S 738 mmHg 83%
20:00 +11°C° 0 mm 3 m/S 738 mmHg 82%
21:00 +11°C° 0 mm 3 m/S 738 mmHg 82%
22:00 +10°C° 0 mm 3 m/S 738 mmHg 83%
23:00 +10°C° 0 mm 3 m/S 738 mmHg 83%

30 Oktober, Freitag

Zeit Temperatur Niederschläge Wind Luftdruck Luftfeuchtigkeit
00:00 +10°C° 0 mm 2 m/S 738 mmHg 84%
01:00 +10°C° 0 mm 2 m/S 738 mmHg 85%
02:00 +9°C° 0 mm 2 m/S 738 mmHg 86%
03:00 +9°C° 0 mm 2 m/S 738 mmHg 87%
04:00 +9°C° 0 mm 2 m/S 738 mmHg 88%
05:00 +9°C° 0 mm 2 m/S 738 mmHg 88%
06:00 +9°C° 0 mm 2 m/S 738 mmHg 88%
07:00 +10°C° 0 mm 2 m/S 738 mmHg 82%
08:00 +13°C° 0 mm 2 m/S 738 mmHg 77%
09:00 +13°C° 0 mm 3 m/S 738 mmHg 71%
10:00 +14°C° 0 mm 3 m/S 738 mmHg 67%
11:00 +16°C° 0 mm 3 m/S 738 mmHg 63%
12:00 +17°C° 0 mm 3 m/S 738 mmHg 60%
13:00 +17°C° 0 mm 2 m/S 738 mmHg 63%
14:00 +17°C° 0 mm 2 m/S 737 mmHg 65%
15:00 +16°C° 0 mm 2 m/S 737 mmHg 68%
16:00 +15°C° 0 mm 2 m/S 737 mmHg 72%
17:00 +14°C° 0 mm 2 m/S 737 mmHg 77%
18:00 +12°C° 0 mm 1 m/S 737 mmHg 81%
19:00 +12°C° 0 mm 1 m/S 736 mmHg 81%
20:00 +12°C° 0 mm 2 m/S 736 mmHg 81%
21:00 +10°C° 0 mm 2 m/S 736 mmHg 81%
22:00 +10°C° 0 mm 2 m/S 736 mmHg 81%
23:00 +10°C° 0 mm 2 m/S 736 mmHg 82%
Mehr zeigen